Regional Weather Roundup
Issued by NWS Charleston, SC

Current Version | Previous Version | Graphics & Text | Print | Product List | Glossary On
Versions: 1 2 3 4 5 6 7 8 9 10 11 12 13 14 15 16 17 18 19 20 21 22 23 24 25 26 27 28 29 30 31 32 33 34 35 36 37 38 39 40 41 42 43 44 45 46 47 48 49 50
000
ASUS42 KCHS 292026
RWRCHS

REGIONAL WEATHER ROUNDUP
NATIONAL WEATHER SERVICE CHARLESTON SC
300 PM EST THU JAN 29 2015

NOTE: "FAIR" INDICATES FEW OR NO CLOUDS BELOW 12,000 FEET WITH NO
SIGNIFICANT WEATHER AND/OR OBSTRUCTIONS TO VISIBILITY.

NOT ALL STATIONS ARE QUALITY CONTROLLED BY THE NATIONAL
WEATHER SERVICE. USE DATA WITH CAUTION...ESPECIALLY
DEWPOINT OBSERVATIONS.

SCZ027-030-031-034>040-042>050-292100-
...SOUTHEAST SOUTH CAROLINA...

CITY           SKY/WX    TMP DP  RH WIND       PRES   REMARKS
N CHARLESTON   CLOUDY    57  35  43 S14G20    30.24F
WATERFRONT PRK   N/A     54 N/A N/A S9          N/A
MOUNT PLEASANT FAIR      55  36  47 S8        30.25F
PINOPOLIS        N/A     57  30  35 SW7       30.15F
MONCKS CORNER  FAIR      57  32  38 SW9       30.24S
SUMMERVILLE    FAIR      57  34  41 S8        30.24F
BEAUFORT MCAS  PTSUNNY   57  41  55 S9        30.24F
BEAUFORT ARPT  FAIR      55  43  62 S8        30.24F
HILTON HEAD IS MOSUNNY   54  41  62 SE6       30.26F
WALTERBORO     MOCLDY    57  28  33 S7        30.24F
ALLENDALE      FAIR      59  30  33 SW7       30.22F

...SOUTHERN MIDLANDS AND PEE DEE...

CITY           SKY/WX    TMP DP  RH WIND       PRES   REMARKS
GEORGETOWN     NOT AVBL
KINGSTREE      NOT AVBL
ORANGEBURG     PTSUNNY   54  21  27 SW6       30.23F
BARNWELL       FAIR      57  28  33 SW5       30.23F
AIKEN          FAIR      55  27  33 S12G20    30.22F
MANNING        FAIR      55  19  24 S3        30.24F
COLUMBIA       MOSUNNY   56  23  27 S13       30.20F
SUMTER         PTSUNNY   55  21  26 S14       30.21F
FLORENCE       CLOUDY    53  18  25 SW10      30.22F
MYRTLE BEACH   SUNNY     48  30  49 SE10      30.28F
N MYRTLE BEACH CLOUDY    48  28  46 SE7       30.25F

$$

GAZ063-065-086>088-099>101-113>116-118-119-134>141-150-292100-
...SOUTHEAST GEORGIA...

CITY           SKY/WX    TMP DP  RH WIND       PRES   REMARKS
SAVANNAH ARPT  CLOUDY    59  39  47 S9        30.24F
HUNTER AAF     PTSUNNY   59  42  53 SE10      30.22F
FORT STEWART   PTSUNNY   62  37  40 S8        30.22F
STATESBORO     PTSUNNY   59  36  41 SW8       30.22F
SYLVANIA       MOCLDY    58  37  45 SW5       30.23F
CLAXTON        FAIR      61  37  41 SW5       30.23F

...CSRA...CENTRAL AND FAR SOUTHEAST GEORGIA...

CITY           SKY/WX    TMP DP  RH WIND       PRES   REMARKS
THOMSON        SUNNY     58  29  33 S7        30.23F
AUGUSTA-BUSH   MOSUNNY   57  23  26 VRB7      30.22F
AUGUSTA-DANIEL MOSUNNY   57  23  26 S13       30.21F
SWAINSBORO     FAIR      59   3  10 S5        30.22F
VIDALIA        PTSUNNY   61  36  39 S9        30.22F
EASTMAN        FAIR      60  29  30 SW6       30.24F
HAZLEHURST     FAIR      61  36  38 SW6       30.21F
ALMA           PTSUNNY   62  33  33 S9        30.24S
WAYCROSS       PTSUNNY   66  42  41 SW8       30.23F
JESUP          FAIR      63  43  48 CALM      30.24F
BAXLEY         FAIR      63  34  34 SW9       30.22F
BRUNSWICK      PTSUNNY   61  43  51 S5        30.25R
SAINT SIMONS   PTSUNNY   56  42  59 SE7       30.24F

$$

SCZ027-028-034-036>038-045-046-048>050-GAZ119-141-292100-
...LAKE AND SUPPLEMENTAL COASTAL OBSERVATIONS...

STATION/POSITION TIME  TEMP    WIND        PRES    WAVE   SWELL
                       AIR SEA DIR/SP/G            HT/PER HT/PER/DIR
                 (UTC) (F)     (DEG/KT/KT) (MB)    (FT/S) (FT/S/D)
UPR LAKE MARION  NOT AVBL
WINYAH BAY       NOT AVBL
LAKE MURRAY      1900   51     210/  6/  7 1023.4F
ACE BASIN NERRS  1845   54     170/  2     1025.0
FORT PULASKI     2000   51 52   80/  8/  9 1024.7F
SAPELO ISLAND    1900   61     140/  5     1024.0

$$

ANZ835-935-AMZ111-154-330-350-352-354-370-450-454-472-292100-
...C-MAN AND BUOY OBSERVATIONS...

STATION/POSITION TIME  TEMP    WIND        PRES    WAVE   SWELL
                       AIR SEA DIR/SP/G            HT/PER HT/PER/DIR
                 (UTC) (F)     (DEG/KT/KT) (MB)    (FT/S) (FT/S/D)
BUOY 41004       1950   56 68  210/  8/ 10 1024.2F   3/10   3/10
BUOY 41008       1950   53 54   30/  4/  4 1024.0F   3/11   3/ 70/11
FOLLY BEACH CMAN 2000   50     130/  4/  4 1024.7F
CAPERS NEARSHORE NOT AVBL
FRIPP NEARSHORE  NOT AVBL


STATION/POSITION TIME  TEMP    WIND        PRES    WAVE   SWELL
                       AIR SEA DIR/SP/G            HT/PER HT/PER/DIR
                 (UTC) (F)     (DEG/KT/KT) (MB)    (FT/S) (FT/S/D)
5E ST. MARYS GA  NOT AVBL
FRYING PAN BUOY  1950   51 67  240/  4/  8 1025.1F   3/ 8   3/ 70/ 8
BUOY 41025       1950   41 71  300/  4/  8 1024.1F   4/ 9   5/ 40/ 9
CAPE LOOKOUT NC  2000   42     240/  4/  5 1024.4F
BUOY 41002       1950   57 72  340/  8/ 10 1024.1F   6/ 8   5/ 20/ 8
BUOY 41010       1920   64 75   70/  4/  8 1024.5F
ST AUGUSTINE FL  2000   56      20/  9/ 10 1024.6F


$$


USA.gov is the U.S. government's official web portal to all federal, state and local government web resources and services.